contact:dominique.lefevre@mio.osupytheas.fr, maurice.libes@osupytheas.fr, didier.mallarino@osupytheas.fr
Project:EMSO http://www.emso-fr.org/EMSO-France
Depth: 2436.0 m
Title:EMSO Ligure Ouest : Data MII capteur AQUADOPP
Date,Latitude,Longitude,X_East,Y_North,Z_Up,Amplitude_X,Amplitude_Y,Amplitude_Z,Batterie,SoundSpeed,Heading,Pitch,Roll,Pressure,TIS,Speed,Direction
, degrees North, degrees East, m.s-1, m.s-1,m.s-1, 1, 1, 1, Volt, m.s-1, degree, degree, degree, dbar, degree_C, m.s-1, degree
2022-06-22T00:04:03,42.805,6.029,-0.033,0.012,-0.029,106.0,107.0,103.0,13.3,1505.2,328.6,-0.7,1.8,2470.946,13.29,0.035,290.0
2022-06-22T00:07:03,42.805,6.029,-0.019,0.016,-0.028,106.0,106.0,102.0,13.4,1505.2,322.2,-0.8,1.8,2470.936,13.29,0.024,310.1
2022-06-22T00:10:03,42.805,6.029,-0.028,0.029,-0.009,107.0,107.0,104.0,13.3,1505.2,324.0,-0.7,1.8,2470.954,13.29,0.04,316.0
2022-06-22T00:13:03,42.805,6.029,-0.012,0.002,-0.006,107.0,106.0,103.0,13.4,1505.2,329.9,-0.7,1.8,2470.944,13.29,0.012,279.5
2022-06-22T00:16:03,42.805,6.029,-0.004,0.02,0.023,106.0,106.0,103.0,13.4,1505.2,329.8,-0.8,1.8,2470.948,13.29,0.02,348.7
2022-06-22T00:19:03,42.805,6.029,-0.002,0.001,-0.017,107.0,105.0,103.0,13.3,1505.2,333.6,-0.8,1.8,2470.916,13.29,0.002,296.6
2022-06-22T00:22:03,42.805,6.029,-0.02,0.012,0.0,104.0,105.0,103.0,13.4,1505.2,328.5,-0.7,1.8,2470.972,13.29,0.023,301.0
2022-06-22T00:25:03,42.805,6.029,-0.006,0.011,-0.02,105.0,104.0,104.0,13.3,1505.2,327.9,-0.7,1.8,2470.936,13.29,0.012,331.4
2022-06-22T00:28:03,42.805,6.029,-0.033,0.005,0.008,106.0,105.0,102.0,13.3,1505.2,331.3,-0.8,1.8,2470.949,13.29,0.033,278.6
2022-06-22T00:31:03,42.805,6.029,-0.063,0.01,0.007,105.0,105.0,103.0,13.4,1505.2,333.6,-0.7,1.8,2470.957,13.29,0.063,279.0
2022-06-22T00:34:03,42.805,6.029,-0.019,0.018,-0.022,106.0,105.0,102.0,13.4,1505.2,324.4,-0.7,1.8,2470.917,13.29,0.026,313.5
2022-06-22T00:37:03,42.805,6.029,-0.037,0.0,-0.022,104.0,105.0,102.0,13.3,1505.2,323.5,-0.8,1.9,2470.958,13.29,0.037,270.0
2022-06-22T00:40:03,42.805,6.029,-0.014,0.007,-0.014,105.0,105.0,103.0,13.4,1505.2,329.1,-0.8,1.9,2470.957,13.29,0.015,296.6
2022-06-22T00:43:03,42.805,6.029,-0.007,0.017,-0.019,105.0,104.0,103.0,13.4,1505.2,321.0,-0.8,1.8,2470.962,13.29,0.018,337.6
2022-06-22T00:46:03,42.805,6.029,0.004,0.004,0.006,104.0,105.0,102.0,13.4,1505.2,323.3,-0.7,1.8,2470.974,13.29,0.005,45.0
2022-06-22T00:49:03,42.805,6.029,-0.003,0.009,-0.02,106.0,105.0,102.0,13.4,1505.2,326.5,-0.7,1.8,2470.939,13.29,0.009,341.6
2022-06-22T00:52:03,42.805,6.029,-0.026,0.0,-0.027,108.0,106.0,102.0,13.4,1505.2,327.7,-0.7,1.8,2470.95,13.29,0.026,270.0
2022-06-22T00:55:03,42.805,6.029,-0.001,0.001,-0.006,107.0,105.0,105.0,13.4,1505.2,323.4,-0.7,1.9,2470.92,13.29,0.001,315.0
2022-06-22T00:58:03,42.805,6.029,-0.012,0.016,-0.012,108.0,106.0,103.0,13.4,1505.2,325.3,-0.8,1.8,2470.94,13.29,0.02,323.1
2022-06-22T01:04:03,42.805,6.029,-0.026,-0.013,-0.007,106.0,107.0,104.0,13.4,1505.2,323.3,-0.8,1.8,2470.955,13.29,0.029,243.4
2022-06-22T01:07:03,42.805,6.029,-0.019,0.022,-0.014,107.0,107.0,103.0,13.4,1505.2,331.8,-0.8,1.8,2470.954,13.29,0.029,319.2
2022-06-22T01:10:03,42.805,6.029,-0.011,0.004,-0.008,106.0,106.0,104.0,13.4,1505.2,320.3,-0.8,1.8,2470.986,13.29,0.011,290.0
2022-06-22T01:13:03,42.805,6.029,-0.022,0.011,-0.019,106.0,106.0,104.0,13.4,1505.2,327.0,-0.8,1.8,2471.003,13.29,0.024,296.6
2022-06-22T01:16:03,42.805,6.029,-0.02,0.009,-0.004,106.0,106.0,102.0,13.3,1505.2,326.0,-0.8,1.8,2470.969,13.29,0.021,294.2
2022-06-22T01:19:03,42.805,6.029,-0.032,0.023,-0.033,107.0,105.0,102.0,13.4,1505.2,328.3,-0.8,1.8,2470.973,13.29,0.039,305.7
2022-06-22T01:22:03,42.805,6.029,-0.03,0.016,-0.04,104.0,105.0,103.0,13.4,1505.2,328.9,-0.8,1.8,2470.933,13.29,0.034,298.1
2022-06-22T01:25:03,42.805,6.029,0.001,0.013,-0.013,105.0,106.0,103.0,13.4,1505.2,323.2,-0.8,1.8,2471.017,13.29,0.013,4.4
2022-06-22T01:28:03,42.805,6.029,-0.011,0.019,0.0,106.0,104.0,102.0,13.4,1505.2,323.9,-0.8,1.8,2470.972,13.29,0.021,329.9
2022-06-22T01:31:03,42.805,6.029,-0.006,0.013,-0.006,107.0,105.0,103.0,13.4,1505.2,323.4,-0.7,1.8,2470.985,13.29,0.014,335.2
2022-06-22T01:34:03,42.805,6.029,-0.01,0.012,-0.001,109.0,104.0,103.0,13.4,1505.2,330.3,-0.7,1.9,2470.953,13.29,0.015,320.2
2022-06-22T01:37:03,42.805,6.029,-0.016,0.011,-0.01,107.0,106.0,103.0,13.3,1505.2,328.7,-0.8,1.8,2470.976,13.29,0.019,304.5
2022-06-22T01:40:03,42.805,6.029,-0.011,0.02,0.003,108.0,106.0,104.0,13.4,1505.2,327.1,-0.8,1.8,2470.973,13.29,0.022,331.2
2022-06-22T01:43:03,42.805,6.029,-0.017,0.019,0.009,106.0,108.0,104.0,13.4,1505.2,332.0,-0.7,1.8,2470.959,13.29,0.025,318.2
2022-06-22T01:46:03,42.805,6.029,-0.013,-0.008,0.01,108.0,107.0,104.0,13.4,1505.2,324.1,-0.8,1.8,2470.984,13.29,0.015,238.4
2022-06-22T01:49:03,42.805,6.029,-0.021,-0.003,-0.015,108.0,106.0,103.0,13.4,1505.2,331.7,-0.7,1.8,2471.01,13.29,0.021,261.9
2022-06-22T01:52:03,42.805,6.029,-0.026,0.006,-0.023,106.0,104.0,104.0,13.4,1505.2,321.9,-0.8,1.8,2470.947,13.29,0.026,283.0
2022-06-22T01:55:03,42.805,6.029,-0.028,0.015,0.008,106.0,104.0,104.0,13.4,1505.2,327.7,-0.8,1.8,2471.007,13.29,0.031,298.2
2022-06-22T01:58:03,42.805,6.029,-0.018,0.011,-0.026,106.0,107.0,104.0,13.4,1505.2,327.6,-0.8,1.8,2470.985,13.29,0.021,301.4
2022-06-22T02:04:03,42.805,6.029,-0.03,0.036,-0.001,105.0,107.0,102.0,13.4,1505.2,320.8,-0.8,1.8,2470.989,13.29,0.046,320.2
2022-06-22T02:07:03,42.805,6.029,-0.02,0.003,-0.007,108.0,105.0,103.0,13.4,1505.2,328.1,-0.7,1.8,2470.988,13.29,0.02,278.5
2022-06-22T02:10:03,42.805,6.029,0.002,0.012,-0.02,106.0,106.0,103.0,13.4,1505.2,333.6,-0.7,1.8,2470.986,13.29,0.012,9.5
2022-06-22T02:13:03,42.805,6.029,-0.02,0.022,0.002,105.0,107.0,104.0,13.4,1505.2,319.8,-0.8,1.8,2471.007,13.29,0.029,317.7
2022-06-22T02:16:03,42.805,6.029,-0.009,0.036,0.009,104.0,106.0,103.0,13.4,1505.2,322.8,-0.8,1.9,2470.983,13.29,0.037,346.0
2022-06-22T02:19:03,42.805,6.029,-0.008,0.0,-0.008,105.0,105.0,103.0,13.4,1505.2,325.0,-0.8,1.8,2471.006,13.29,0.008,270.0
2022-06-22T02:22:03,42.805,6.029,-0.022,0.01,-0.047,106.0,105.0,102.0,13.4,1505.2,323.6,-0.7,1.8,2470.95,13.29,0.024,294.4
2022-06-22T02:25:03,42.805,6.029,-0.02,0.028,0.015,105.0,104.0,102.0,13.3,1505.2,328.5,-0.8,1.8,2470.916,13.29,0.034,324.5
2022-06-22T02:28:03,42.805,6.029,-0.031,0.033,0.01,105.0,103.0,102.0,13.4,1505.2,324.6,-0.8,1.8,2470.974,13.29,0.045,316.8
2022-06-22T02:31:03,42.805,6.029,-0.024,0.01,0.006,105.0,105.0,102.0,13.3,1505.2,323.4,-0.8,1.8,2470.962,13.29,0.026,292.6
2022-06-22T02:34:03,42.805,6.029,-0.004,0.012,0.029,105.0,106.0,102.0,13.3,1505.2,322.9,-0.8,1.8,2470.973,13.29,0.012,341.6
2022-06-22T02:37:03,42.805,6.029,-0.022,0.019,-0.012,104.0,104.0,101.0,13.3,1505.2,328.1,-0.7,1.8,2470.96,13.29,0.029,310.8
2022-06-22T02:40:03,42.805,6.029,0.0,0.002,-0.022,104.0,103.0,102.0,13.4,1505.2,320.4,-0.7,1.8,2470.957,13.29,0.002,0.0
2022-06-22T02:43:03,42.805,6.029,-0.027,0.035,-0.001,106.0,104.0,103.0,13.4,1505.2,325.1,-0.8,1.8,2470.974,13.29,0.044,322.3
2022-06-22T02:46:03,42.805,6.029,0.004,0.017,0.0,104.0,105.0,103.0,13.3,1505.2,322.3,-0.7,1.8,2470.967,13.29,0.017,13.2
2022-06-22T02:49:03,42.805,6.029,-0.037,0.024,0.009,106.0,105.0,103.0,13.4,1505.2,325.9,-0.8,1.8,2470.945,13.29,0.044,303.0
2022-06-22T02:52:03,42.805,6.029,-0.009,0.006,-0.024,106.0,105.0,104.0,13.4,1505.2,333.4,-0.7,1.9,2470.948,13.29,0.01,303.7
2022-06-22T02:55:03,42.805,6.029,-0.01,0.019,0.0,106.0,105.0,104.0,13.4,1505.2,322.1,-0.8,1.8,2470.935,13.29,0.021,332.2
2022-06-22T02:58:03,42.805,6.029,-0.024,0.002,-0.005,106.0,106.0,103.0,13.4,1505.2,327.7,-0.8,1.8,2470.952,13.29,0.024,274.8
2022-06-22T03:04:03,42.805,6.029,0.001,0.017,0.017,106.0,106.0,104.0,13.4,1505.2,323.2,-0.7,1.8,2470.989,13.29,0.017,3.4
2022-06-22T03:07:03,42.805,6.029,0.018,0.007,-0.003,106.0,107.0,103.0,13.4,1505.2,331.2,-0.8,1.8,2470.955,13.29,0.019,68.8
2022-06-22T03:10:03,42.805,6.029,-0.005,0.011,-0.011,107.0,106.0,104.0,13.3,1505.2,331.5,-0.8,1.8,2470.979,13.29,0.012,335.6
2022-06-22T03:13:03,42.805,6.029,-0.012,0.02,-0.016,106.0,106.0,104.0,13.4,1505.2,324.5,-0.8,1.8,2470.951,13.29,0.023,329.0
2022-06-22T03:16:03,42.805,6.029,-0.018,0.021,-0.02,106.0,106.0,104.0,13.4,1505.2,323.2,-0.7,1.8,2470.912,13.29,0.027,319.4
2022-06-22T03:19:03,42.805,6.029,-0.001,0.001,-0.022,106.0,105.0,105.0,13.4,1505.2,323.7,-0.8,1.8,2470.963,13.29,0.001,315.0
2022-06-22T03:22:03,42.805,6.029,-0.016,0.0,-0.036,108.0,107.0,104.0,13.4,1505.2,320.8,-0.8,1.8,2470.879,13.29,0.016,270.0
2022-06-22T03:25:03,42.805,6.029,-0.02,0.016,-0.037,106.0,106.0,104.0,13.4,1505.2,327.8,-0.7,1.8,2470.921,13.29,0.025,308.7
2022-06-22T03:28:03,42.805,6.029,-0.019,0.005,-0.011,108.0,107.0,103.0,13.4,1505.2,327.3,-0.8,1.8,2470.912,13.29,0.019,284.7
2022-06-22T03:31:03,42.805,6.029,-0.01,-0.002,-0.013,107.0,105.0,103.0,13.4,1505.2,320.7,-0.8,1.8,2470.895,13.29,0.01,258.7
2022-06-22T03:34:03,42.805,6.029,-0.003,0.024,0.021,105.0,104.0,103.0,13.4,1505.2,324.5,-0.8,1.8,2470.911,13.29,0.024,352.9
2022-06-22T03:37:03,42.805,6.029,-0.012,0.0,-0.039,108.0,105.0,102.0,13.4,1505.2,331.5,-0.8,1.8,2470.881,13.29,0.012,270.0
2022-06-22T03:40:03,42.805,6.029,0.008,0.01,-0.032,106.0,105.0,103.0,13.4,1505.2,328.2,-0.8,1.8,2470.928,13.29,0.012,38.7
2022-06-22T03:43:03,42.805,6.029,-0.031,0.016,-0.025,107.0,105.0,104.0,13.4,1505.2,326.6,-0.7,1.8,2470.902,13.29,0.034,297.3
2022-06-22T03:46:03,42.805,6.029,-0.031,0.003,-0.013,106.0,106.0,103.0,13.3,1505.2,323.7,-0.7,1.8,2470.903,13.29,0.031,275.5
2022-06-22T03:49:03,42.805,6.029,-0.004,0.001,-0.01,107.0,106.0,103.0,13.3,1505.2,323.1,-0.8,1.8,2470.916,13.29,0.004,284.0
2022-06-22T03:52:03,42.805,6.029,0.001,0.006,-0.012,107.0,105.0,103.0,13.3,1505.2,328.5,-0.7,1.8,2470.942,13.29,0.006,9.5
2022-06-22T03:55:03,42.805,6.029,-0.023,0.021,0.002,105.0,106.0,104.0,13.4,1505.2,330.8,-0.7,1.8,2470.95,13.29,0.031,312.4
2022-06-22T03:58:03,42.805,6.029,-0.025,0.014,-0.015,109.0,106.0,104.0,13.4,1505.2,328.4,-0.7,1.8,2470.905,13.29,0.028,299.3
2022-06-22T04:04:03,42.805,6.029,-0.017,0.005,-0.01,108.0,107.0,104.0,13.4,1505.2,328.8,-0.7,1.8,2470.952,13.29,0.017,286.4
2022-06-22T04:07:03,42.805,6.029,-0.005,0.022,-0.008,109.0,106.0,104.0,13.4,1505.2,331.4,-0.8,1.8,2470.953,13.29,0.022,347.2
2022-06-22T04:10:03,42.805,6.029,-0.007,0.011,-0.03,106.0,106.0,104.0,13.4,1505.2,323.6,-0.7,1.8,2470.941,13.29,0.013,327.5
2022-06-22T04:13:03,42.805,6.029,0.005,0.031,0.025,106.0,106.0,103.0,13.4,1505.2,329.0,-0.7,1.8,2470.938,13.29,0.031,9.2
2022-06-22T04:16:03,42.805,6.029,-0.017,0.024,-0.022,107.0,107.0,103.0,13.3,1505.2,321.0,-0.8,1.8,2470.936,13.29,0.029,324.7
2022-06-22T04:19:03,42.805,6.029,-0.026,0.009,-0.012,105.0,106.0,104.0,13.4,1505.2,321.5,-0.7,1.8,2470.935,13.29,0.027,289.1
2022-06-22T04:22:03,42.805,6.029,-0.013,0.026,-0.006,106.0,107.0,104.0,13.3,1505.2,322.3,-0.7,1.8,2470.922,13.29,0.029,333.4
2022-06-22T04:25:03,42.805,6.029,-0.007,0.002,-0.002,106.0,106.0,104.0,13.4,1505.2,323.8,-0.7,1.8,2470.902,13.29,0.007,285.9
2022-06-22T04:28:03,42.805,6.029,-0.022,0.003,-0.03,107.0,106.0,104.0,13.3,1505.2,325.3,-0.8,1.8,2470.929,13.29,0.022,277.8
2022-06-22T04:31:03,42.805,6.029,-0.008,0.02,0.007,108.0,105.0,104.0,13.3,1505.2,322.5,-0.8,1.8,2470.918,13.29,0.021,338.2
2022-06-22T04:34:03,42.805,6.029,-0.015,0.01,0.0,106.0,105.0,103.0,13.4,1505.2,320.7,-0.7,1.8,2470.911,13.29,0.018,303.7
2022-06-22T04:37:03,42.805,6.029,-0.018,0.025,-0.03,106.0,104.0,103.0,13.3,1505.2,323.7,-0.8,1.8,2470.923,13.29,0.03,324.2
2022-06-22T04:40:03,42.805,6.029,0.002,0.039,0.008,106.0,106.0,103.0,13.4,1505.2,333.6,-0.8,1.8,2470.893,13.29,0.039,2.9
2022-06-22T04:43:03,42.805,6.029,-0.012,0.027,-0.024,106.0,106.0,104.0,13.3,1505.2,325.0,-0.7,1.8,2470.948,13.29,0.029,336.0
2022-06-22T04:46:03,42.805,6.029,-0.027,0.017,-0.016,106.0,106.0,104.0,13.3,1505.2,321.6,-0.7,1.9,2470.901,13.29,0.031,302.2
2022-06-22T04:49:03,42.805,6.029,-0.003,0.004,0.013,106.0,105.0,104.0,13.3,1505.2,331.0,-0.8,1.8,2470.88,13.29,0.005,323.1
2022-06-22T04:52:03,42.805,6.029,-0.011,0.005,-0.017,106.0,105.0,104.0,13.4,1505.2,323.0,-0.7,1.8,2470.918,13.29,0.012,294.4
2022-06-22T04:55:03,42.805,6.029,0.0,0.012,0.0,106.0,106.0,103.0,13.3,1505.2,329.0,-0.8,1.8,2470.92,13.29,0.012,0.0
2022-06-22T04:58:03,42.805,6.029,-0.017,0.002,-0.022,106.0,105.0,104.0,13.4,1505.2,329.6,-0.7,1.8,2470.922,13.29,0.017,276.7
2022-06-22T05:01:03,42.805,6.029,0.008,0.023,-0.008,106.0,105.0,103.0,13.4,1505.2,327.9,-0.8,1.8,2470.909,13.29,0.024,19.2
2022-06-22T05:04:03,42.805,6.029,-0.004,0.009,-0.03,106.0,105.0,103.0,13.3,1505.2,326.4,-0.8,1.8,2470.88,13.29,0.009,336.0
2022-06-22T05:07:03,42.805,6.029,-0.014,0.019,-0.011,104.0,106.0,104.0,13.3,1505.2,320.6,-0.7,1.8,2470.897,13.29,0.023,323.6
2022-06-22T05:10:03,42.805,6.029,-0.017,-0.005,-0.013,107.0,106.0,102.0,13.3,1505.2,331.4,-0.7,1.8,2470.889,13.29,0.017,253.6
2022-06-22T05:13:03,42.805,6.029,-0.015,0.02,-0.027,105.0,106.0,102.0,13.4,1505.2,326.9,-0.7,1.8,2470.913,13.29,0.025,323.1
2022-06-22T05:16:03,42.805,6.029,-0.013,0.006,0.004,108.0,106.0,103.0,13.4,1505.2,321.4,-0.7,1.8,2470.895,13.29,0.014,294.8
2022-06-22T05:19:03,42.805,6.029,-0.022,0.014,0.003,108.0,108.0,103.0,13.3,1505.2,333.8,-0.8,1.8,2470.9,13.29,0.026,302.5
2022-06-22T05:22:03,42.805,6.029,-0.023,0.033,0.005,105.0,106.0,102.0,13.4,1505.2,332.1,-0.8,1.8,2470.896,13.29,0.04,325.1
2022-06-22T05:25:03,42.805,6.029,0.0,0.025,-0.003,110.0,106.0,104.0,13.4,1505.2,324.7,-0.8,1.8,2470.866,13.29,0.025,0.0
2022-06-22T05:28:03,42.805,6.029,0.003,0.023,-0.018,106.0,106.0,105.0,13.4,1505.2,324.7,-0.7,1.8,2470.892,13.29,0.023,7.4
2022-06-22T05:31:03,42.805,6.029,0.0,0.017,-0.024,104.0,106.0,103.0,13.4,1505.2,326.9,-0.8,1.8,2470.907,13.29,0.017,0.0
2022-06-22T05:34:03,42.805,6.029,0.012,0.02,-0.007,106.0,106.0,103.0,13.3,1505.2,332.4,-0.8,1.8,2470.849,13.29,0.023,31.0
2022-06-22T05:37:03,42.805,6.029,-0.004,0.015,-0.009,105.0,106.0,103.0,13.3,1505.2,327.4,-0.7,1.8,2470.858,13.29,0.015,345.1
2022-06-22T05:40:03,42.805,6.029,-0.013,0.014,-0.014,109.0,107.0,104.0,13.3,1505.2,320.5,-0.8,1.8,2470.878,13.29,0.019,317.1
2022-06-22T05:43:03,42.805,6.029,-0.014,0.036,-0.018,107.0,105.0,104.0,13.4,1505.2,327.8,-0.8,1.8,2470.901,13.29,0.038,338.8
2022-06-22T05:46:03,42.805,6.029,-0.02,-0.001,0.003,106.0,105.0,103.0,13.4,1505.2,325.8,-0.7,1.8,2470.888,13.29,0.02,267.1
2022-06-22T05:49:03,42.805,6.029,-0.013,0.006,-0.017,106.0,106.0,103.0,13.4,1505.2,323.6,-0.8,1.8,2470.861,13.29,0.014,294.8
2022-06-22T05:52:03,42.805,6.029,-0.008,0.016,-0.032,105.0,105.0,103.0,13.4,1505.2,329.6,-0.7,1.8,2470.9,13.29,0.017,333.4
2022-06-22T05:55:03,42.805,6.029,0.004,0.018,0.006,107.0,106.0,102.0,13.3,1505.2,331.0,-0.7,1.8,2470.907,13.29,0.018,12.5
2022-06-22T05:58:03,42.805,6.029,-0.012,0.003,-0.011,106.0,106.0,103.0,13.4,1505.2,319.8,-0.8,1.8,2470.896,13.29,0.012,284.0
2022-06-22T06:04:03,42.805,6.029,-0.043,0.031,0.012,105.0,106.0,103.0,13.3,1505.2,324.1,-0.8,1.8,2470.881,13.29,0.053,305.8
2022-06-22T06:07:03,42.805,6.029,-0.022,0.009,0.0,106.0,107.0,103.0,13.3,1505.2,332.7,-0.7,1.8,2470.88,13.29,0.023,292.2
2022-06-22T06:10:03,42.805,6.029,0.0,0.016,-0.033,105.0,106.0,104.0,13.3,1505.2,320.9,-0.7,1.8,2470.89,13.29,0.016,0.0
2022-06-22T06:13:03,42.805,6.029,-0.013,0.016,-0.016,105.0,107.0,104.0,13.3,1505.2,323.3,-0.7,1.8,2470.879,13.29,0.02,320.9
2022-06-22T06:16:03,42.805,6.029,-0.022,-0.002,-0.035,106.0,106.0,103.0,13.3,1505.2,323.4,-0.7,1.8,2470.881,13.29,0.022,264.8
2022-06-22T06:19:03,42.805,6.029,-0.003,0.005,-0.011,106.0,107.0,103.0,13.4,1505.2,321.8,-0.7,1.8,2470.876,13.29,0.005,329.0
2022-06-22T06:22:03,42.805,6.029,-0.011,0.018,0.001,108.0,106.0,103.0,13.4,1505.2,328.7,-0.8,1.8,2470.916,13.29,0.021,328.6
2022-06-22T06:25:03,42.805,6.029,-0.035,0.014,0.008,106.0,106.0,104.0,13.3,1505.2,332.1,-0.8,1.8,2470.874,13.29,0.037,291.8
2022-06-22T06:28:03,42.805,6.029,-0.013,0.005,0.002,106.0,106.0,103.0,13.3,1505.2,328.4,-0.8,1.8,2470.884,13.29,0.013,291.0
2022-06-22T06:31:03,42.805,6.029,-0.007,0.01,-0.002,105.0,105.0,104.0,13.4,1505.2,324.4,-0.7,1.8,2470.874,13.29,0.012,325.0
2022-06-22T06:34:03,42.805,6.029,-0.011,0.03,-0.019,106.0,106.0,103.0,13.3,1505.2,328.8,-0.8,1.8,2470.884,13.29,0.031,339.9
2022-06-22T06:37:03,42.805,6.029,-0.024,-0.006,-0.009,106.0,105.0,104.0,13.4,1505.2,325.5,-0.8,1.8,2470.842,13.29,0.024,256.0
2022-06-22T06:40:03,42.805,6.029,-0.008,0.007,-0.002,107.0,107.0,103.0,13.4,1505.2,321.6,-0.8,1.8,2470.865,13.29,0.01,311.2
2022-06-22T06:43:03,42.805,6.029,-0.001,0.001,-0.014,106.0,105.0,103.0,13.3,1505.2,327.6,-0.7,1.8,2470.869,13.29,0.001,315.0
2022-06-22T06:46:03,42.805,6.029,-0.018,0.006,-0.026,109.0,106.0,103.0,13.4,1505.2,331.3,-0.8,1.8,2470.841,13.29,0.018,288.4
2022-06-22T06:49:03,42.805,6.029,0.004,0.016,0.02,105.0,106.0,104.0,13.3,1505.2,328.2,-0.8,1.8,2470.825,13.29,0.016,14.0
2022-06-22T06:52:03,42.805,6.029,-0.001,0.013,-0.011,106.0,106.0,103.0,13.4,1505.2,329.1,-0.8,1.9,2470.836,13.29,0.013,355.6
2022-06-22T06:55:03,42.805,6.029,-0.011,0.032,-0.012,106.0,106.0,103.0,13.3,1505.2,333.2,-0.8,1.8,2470.826,13.29,0.033,341.0
2022-06-22T06:58:03,42.805,6.029,-0.001,0.013,-0.007,107.0,106.0,103.0,13.4,1505.2,324.6,-0.7,1.8,2470.834,13.29,0.013,355.6
2022-06-22T07:04:03,42.805,6.029,0.003,0.003,0.003,107.0,106.0,103.0,13.4,1505.2,321.3,-0.8,1.8,2470.863,13.29,0.004,45.0
2022-06-22T07:07:03,42.805,6.029,-0.009,0.024,0.011,106.0,106.0,102.0,13.4,1505.2,329.2,-0.8,1.8,2470.872,13.29,0.025,339.4
2022-06-22T07:10:03,42.805,6.029,-0.012,0.017,-0.02,105.0,106.0,102.0,13.4,1505.2,324.8,-0.8,1.8,2470.844,13.29,0.02,324.8
2022-06-22T07:13:03,42.805,6.029,-0.001,0.012,-0.027,106.0,105.0,103.0,13.4,1505.2,328.2,-0.8,1.8,2470.829,13.29,0.012,355.2
2022-06-22T07:16:03,42.805,6.029,0.015,-0.002,-0.013,106.0,107.0,103.0,13.4,1505.2,331.5,-0.7,1.8,2470.835,13.29,0.015,97.6
2022-06-22T07:19:03,42.805,6.029,0.002,0.015,0.0,106.0,105.0,102.0,13.4,1505.2,331.5,-0.7,1.8,2470.851,13.29,0.015,7.6
2022-06-22T07:22:03,42.805,6.029,0.006,0.008,-0.003,104.0,106.0,102.0,13.4,1505.2,325.8,-0.8,1.8,2470.89,13.29,0.01,36.9
2022-06-22T07:25:03,42.805,6.029,-0.007,-0.017,-0.015,106.0,105.0,103.0,13.4,1505.2,328.4,-0.7,1.8,2470.839,13.29,0.018,202.4
2022-06-22T07:28:03,42.805,6.029,0.001,0.012,0.008,107.0,105.0,103.0,13.4,1505.2,322.6,-0.8,1.8,2470.847,13.29,0.012,4.8
2022-06-22T07:31:03,42.805,6.029,-0.001,0.018,-0.01,108.0,105.0,102.0,13.4,1505.2,328.3,-0.8,1.8,2470.818,13.29,0.018,356.8
2022-06-22T07:34:03,42.805,6.029,-0.001,0.016,0.004,104.0,105.0,102.0,13.4,1505.2,323.7,-0.8,1.8,2470.829,13.29,0.016,356.4
2022-06-22T07:37:03,42.805,6.029,-0.021,0.005,-0.014,104.0,106.0,103.0,13.4,1505.2,326.4,-0.7,1.8,2470.837,13.29,0.021,283.4
2022-06-22T07:40:03,42.805,6.029,0.007,-0.002,-0.028,107.0,104.0,103.0,13.4,1505.2,333.4,-0.7,1.8,2470.802,13.29,0.007,105.9
2022-06-22T07:43:03,42.805,6.029,-0.015,0.004,-0.025,108.0,106.0,103.0,13.4,1505.2,324.4,-0.8,1.8,2470.847,13.29,0.015,284.9
2022-06-22T07:46:03,42.805,6.029,0.0,-0.005,-0.015,105.0,107.0,103.0,13.4,1505.2,323.3,-0.8,1.8,2470.834,13.29,0.005,180.0
2022-06-22T07:49:03,42.805,6.029,0.0,0.005,-0.034,106.0,107.0,103.0,13.4,1505.2,321.9,-0.8,1.8,2470.824,13.29,0.005,0.0
2022-06-22T07:52:03,42.805,6.029,-0.023,0.019,0.006,107.0,106.0,103.0,13.4,1505.2,324.4,-0.7,1.9,2470.86,13.29,0.029,309.6
2022-06-22T07:55:03,42.805,6.029,-0.012,0.012,-0.01,105.0,106.0,104.0,13.3,1505.2,323.6,-0.8,1.8,2470.838,13.29,0.016,315.0
2022-06-22T07:58:03,42.805,6.029,0.002,-0.012,-0.016,106.0,107.0,103.0,13.4,1505.2,325.6,-0.7,1.8,2470.804,13.29,0.012,170.5
2022-06-22T08:04:03,42.805,6.029,-0.006,0.023,0.018,105.0,106.0,104.0,13.4,1505.2,322.4,-0.8,1.8,2470.856,13.29,0.023,345.4
2022-06-22T08:07:03,42.805,6.029,-0.015,0.022,-0.024,107.0,105.0,103.0,13.3,1505.2,330.3,-0.7,1.8,2470.864,13.29,0.026,325.7
2022-06-22T08:10:03,42.805,6.029,-0.002,0.014,0.025,105.0,104.0,104.0,13.4,1505.2,322.3,-0.8,1.8,2470.817,13.29,0.014,351.9
2022-06-22T08:13:03,42.805,6.029,-0.014,-0.005,-0.021,105.0,106.0,103.0,13.3,1505.2,330.6,-0.7,1.8,2470.898,13.29,0.014,250.4
2022-06-22T08:16:03,42.805,6.029,-0.001,0.03,-0.024,105.0,105.0,103.0,13.3,1505.2,331.7,-0.8,1.8,2470.805,13.29,0.03,358.1
2022-06-22T08:19:03,42.805,6.029,-0.009,0.023,-0.006,105.0,105.0,103.0,13.3,1505.2,328.0,-0.7,1.8,2470.834,13.29,0.024,338.6
2022-06-22T08:22:03,42.805,6.029,-0.015,-0.001,-0.028,105.0,105.0,104.0,13.3,1505.2,325.9,-0.7,1.8,2470.823,13.29,0.015,266.2
2022-06-22T08:25:03,42.805,6.029,-0.004,0.026,0.004,105.0,104.0,103.0,13.4,1505.2,324.3,-0.8,1.8,2470.78,13.29,0.026,351.3
2022-06-22T08:28:03,42.805,6.029,-0.001,0.025,-0.012,106.0,105.0,103.0,13.3,1505.2,331.3,-0.8,1.8,2470.793,13.29,0.025,357.7
2022-06-22T08:31:03,42.805,6.029,0.005,0.016,-0.016,106.0,104.0,103.0,13.4,1505.2,322.0,-0.8,1.8,2470.814,13.29,0.016,17.4
2022-06-22T08:34:03,42.805,6.029,-0.013,0.014,-0.001,104.0,105.0,103.0,13.4,1505.2,326.3,-0.7,1.8,2470.805,13.29,0.019,317.1
2022-06-22T08:37:03,42.805,6.029,-0.022,0.032,-0.03,106.0,104.0,102.0,13.3,1505.2,320.4,-0.8,1.8,2470.846,13.29,0.038,325.5
2022-06-22T08:40:03,42.805,6.029,0.016,-0.001,0.012,105.0,105.0,103.0,13.4,1505.2,328.2,-0.7,1.8,2470.779,13.29,0.016,93.6
2022-06-22T08:43:03,42.805,6.029,0.003,-0.007,-0.026,107.0,105.0,103.0,13.3,1505.2,324.0,-0.7,1.8,2470.837,13.29,0.007,156.8
2022-06-22T08:46:03,42.805,6.029,-0.008,0.026,-0.002,105.0,105.0,103.0,13.4,1505.2,322.6,-0.7,1.8,2470.79,13.29,0.027,342.9
2022-06-22T08:49:03,42.805,6.029,-0.015,0.019,0.0,105.0,105.0,103.0,13.3,1505.2,332.5,-0.8,1.8,2470.811,13.29,0.024,321.7
2022-06-22T08:52:03,42.805,6.029,-0.001,0.018,-0.005,104.0,105.0,104.0,13.4,1505.2,324.4,-0.8,1.8,2470.814,13.29,0.018,356.8
2022-06-22T08:55:03,42.805,6.029,-0.003,-0.002,-0.009,105.0,105.0,103.0,13.4,1505.2,323.8,-0.7,1.8,2470.809,13.29,0.003,236.3
2022-06-22T08:58:03,42.805,6.029,-0.003,0.013,0.007,107.0,106.0,103.0,13.4,1505.2,329.5,-0.8,1.8,2470.812,13.29,0.013,347.0
2022-06-22T09:04:03,42.805,6.029,0.01,0.041,-0.014,107.0,106.0,103.0,13.4,1505.2,322.2,-0.8,1.8,2470.845,13.29,0.042,13.7
2022-06-22T09:07:03,42.805,6.029,-0.014,0.007,-0.032,107.0,104.0,103.0,13.3,1505.2,326.7,-0.7,1.8,2470.785,13.29,0.015,296.6
2022-06-22T09:10:03,42.805,6.029,-0.013,0.0,0.0,105.0,107.0,102.0,13.4,1505.2,320.1,-0.7,1.8,2470.792,13.29,0.013,270.0
2022-06-22T09:13:03,42.805,6.029,-0.001,0.015,-0.029,106.0,106.0,104.0,13.4,1505.2,330.8,-0.8,1.8,2470.814,13.29,0.015,356.2
2022-06-22T09:16:03,42.805,6.029,0.009,0.013,-0.022,107.0,106.0,105.0,13.3,1505.2,325.3,-0.8,1.8,2470.778,13.29,0.015,34.7
2022-06-22T09:19:03,42.805,6.029,-0.016,-0.006,-0.036,106.0,106.0,103.0,13.4,1505.2,321.0,-0.8,1.8,2470.804,13.29,0.017,249.4
2022-06-22T09:22:03,42.805,6.029,-0.011,-0.017,-0.037,108.0,107.0,102.0,13.4,1505.2,324.7,-0.8,1.8,2470.776,13.29,0.02,212.9
2022-06-22T09:25:03,42.805,6.029,-0.011,0.01,0.018,107.0,105.0,103.0,13.3,1505.2,327.6,-0.8,1.8,2470.806,13.29,0.014,312.3
2022-06-22T09:28:03,42.805,6.029,0.004,0.011,-0.018,105.0,106.0,104.0,13.4,1505.2,323.9,-0.7,1.8,2470.78,13.29,0.011,20.0
2022-06-22T09:31:03,42.805,6.029,-0.023,0.006,0.002,106.0,106.0,103.0,13.3,1505.2,322.2,-0.8,1.8,2470.788,13.29,0.023,284.6
2022-06-22T09:34:03,42.805,6.029,-0.007,0.032,-0.006,108.0,106.0,103.0,13.4,1505.2,326.5,-0.8,1.8,2470.761,13.29,0.032,347.7
2022-06-22T09:37:03,42.805,6.029,-0.009,0.017,0.021,108.0,106.0,104.0,13.3,1505.2,322.1,-0.8,1.8,2470.762,13.29,0.019,332.1
2022-06-22T09:40:03,42.805,6.029,-0.018,0.009,0.005,105.0,106.0,103.0,13.4,1505.2,322.9,-0.8,1.8,2470.766,13.29,0.02,296.6
2022-06-22T09:43:03,42.805,6.029,0.007,-0.019,0.01,108.0,106.0,102.0,13.3,1505.2,323.5,-0.7,1.9,2470.771,13.29,0.02,159.8
2022-06-22T09:46:03,42.805,6.029,-0.006,0.019,0.012,105.0,106.0,103.0,13.3,1505.2,332.1,-0.8,1.8,2470.784,13.29,0.019,342.5
2022-06-22T09:49:03,42.805,6.029,-0.025,0.009,-0.005,105.0,106.0,104.0,13.3,1505.2,324.4,-0.8,1.8,2470.75,13.29,0.026,289.8
2022-06-22T09:52:03,42.805,6.029,-0.001,-0.002,-0.05,105.0,106.0,104.0,13.3,1505.2,331.3,-0.7,1.8,2470.811,13.29,0.002,206.6
2022-06-22T09:55:03,42.805,6.029,-0.001,-0.007,0.007,106.0,105.0,104.0,13.4,1505.2,333.6,-0.8,1.8,2470.787,13.29,0.007,188.1